TimeCDT,TemperatureF,Dew PointF,Humidity,Sea Level PressureIn,VisibilityMPH,Wind Direction,Wind SpeedMPH,Gust SpeedMPH,PrecipitationIn,Events,Conditions,WindDirDegrees,DateUTC
12:53 AM,46.9,34.0,61,30.08,10.0,Calm,Calm,-,N/A,,Clear,0,2014-03-21 05:53:00
1:53 AM,46.0,33.1,61,30.07,10.0,Calm,Calm,-,N/A,,Clear,0,2014-03-21 06:53:00
2:53 AM,44.1,36.0,73,30.06,10.0,Calm,Calm,-,N/A,,Clear,0,2014-03-21 07:53:00
3:53 AM,42.1,35.1,76,30.03,10.0,Calm,Calm,-,N/A,,Clear,0,2014-03-21 08:53:00
4:53 AM,41.0,35.1,79,30.03,10.0,Calm,Calm,-,N/A,,Clear,0,2014-03-21 09:53:00
5:53 AM,41.0,35.1,79,30.02,10.0,SE,3.5,-,N/A,,Partly Cloudy,140,2014-03-21 10:53:00
6:53 AM,39.9,34.0,79,30.03,10.0,Calm,Calm,-,N/A,,Scattered Clouds,0,2014-03-21 11:53:00
7:53 AM,43.0,35.1,74,30.03,10.0,Calm,Calm,-,N/A,,Mostly Cloudy,0,2014-03-21 12:53:00
8:53 AM,48.9,39.0,69,30.03,10.0,Calm,Calm,-,N/A,,Mostly Cloudy,0,2014-03-21 13:53:00
9:53 AM,55.9,35.1,45,30.03,10.0,South,9.2,-,N/A,,Mostly Cloudy,190,2014-03-21 14:53:00
10:53 AM,61.0,37.0,41,30.01,10.0,South,10.4,-,N/A,,Mostly Cloudy,190,2014-03-21 15:53:00
11:53 AM,68.0,37.9,33,29.99,10.0,South,12.7,-,N/A,,Mostly Cloudy,180,2014-03-21 16:53:00
12:53 PM,72.0,37.0,28,29.96,10.0,South,10.4,-,N/A,,Mostly Cloudy,190,2014-03-21 17:53:00
1:53 PM,73.0,36.0,26,29.94,10.0,SSW,11.5,-,N/A,,Mostly Cloudy,210,2014-03-21 18:53:00
2:53 PM,73.9,36.0,25,29.91,10.0,SW,11.5,23.0,N/A,,Mostly Cloudy,230,2014-03-21 19:53:00
3:53 PM,73.9,37.9,27,29.90,10.0,SSW,13.8,-,N/A,,Overcast,200,2014-03-21 20:53:00
4:53 PM,73.0,39.0,29,29.88,10.0,South,10.4,-,N/A,,Overcast,180,2014-03-21 21:53:00
5:53 PM,73.0,39.9,30,29.88,10.0,SSW,11.5,-,N/A,,Mostly Cloudy,200,2014-03-21 22:53:00
6:53 PM,71.1,41.0,34,29.89,10.0,South,6.9,-,N/A,,Mostly Cloudy,190,2014-03-21 23:53:00
7:53 PM,66.9,42.1,40,29.91,10.0,Calm,Calm,-,N/A,,Scattered Clouds,0,2014-03-22 00:53:00
8:53 PM,61.0,43.0,52,29.93,10.0,Calm,Calm,-,N/A,,Scattered Clouds,0,2014-03-22 01:53:00
9:53 PM,55.0,44.1,67,29.93,10.0,Calm,Calm,-,N/A,,Scattered Clouds,0,2014-03-22 02:53:00
10:53 PM,55.0,43.0,64,29.94,10.0,North,4.6,-,N/A,,Scattered Clouds,360,2014-03-22 03:53:00
11:53 PM,57.0,43.0,59,29.94,10.0,Calm,Calm,-,N/A,,Mostly Cloudy,0,2014-03-22 04:53:00